sat.trackr.live / text

‹ back to catalog

PARS 1

NORAD 59065 · 2024-039Q

PAYLOAD ACTIVE UNKNOWN

§ Identity

Operator
Country
IRAN
Launch date
2024-02-29
Launch site
VOSTO
Launch vehicle
Mass (kg)
RCS (m²)

Purposes: earth_obs

External: N2YO · Heavens-Above · Gunter

§ Orbital elements

Epoch: 2026-05-25T04:47:34.600992Z

Period
93.19 min
Inclination
97.4813°
Eccentricity
0.0009165
Mean motion
15.45190533 rev/d
Perigee alt
424.6 km
Apogee alt
437.1 km
Semi-major
6,809.0 km
B*
2.1656e-4
RAAN
125.4064°
Arg perigee
185.0174°
Mean anomaly
175.0985°
Rev number
12,509

§ Raw data

PARS 11 59065U 24039Q   26145.19970603  .00010200  00000+0  21656-3 0  99912 59065  97.4813 125.4064 0009165 185.0174 175.0985 15.45190533125096

JSON: /api/v1/satellites/59065 · /tle

For live sub-satellite position, see the globe view (requires WebGL).

§ Visibility from observer

Set your observer location to see the next 7 days of passes ≥ 10°. The values pass through the URL so the page stays shareable.

No JS? Fill the form by hand. The geolocation button needs JavaScript.

§ Radio — SatNOGS DB

ModeDescriptionDownlinkUplink
FM Mode S - TTCM S 2.221 GHz
FM Mode V - ODS V/TTCR V 145.000 MHz

2 transmitters · refreshed weekly from db.satnogs.org